Theta_e
333 333 332 330 329 327 325 325 327 327 329 328 327 328 329 330 332 332 331 330 329 330 331 329 330 334 331 333 334 332 329 327 320 323 328 330 329 328 328 330 330 330 328
326 323 321 321 320 318 318 318 319 318 319 318 319 321 320 319 320 319 319 319 321 318 318 322 326 327 330 330 329 326 324 327 320 319 323 327 328 329 328 328 326 326 325
317 317 317 316 315 315 315 316 316 316 316 315 315 314 315 315 315 315 315 315 315 315 316 317 317 318 317 319 316 314 317 319 320 317 317 321 323 325 324 325 326 328 327
314 313 313 313 313 313 314 314 314 314 314 313 314 313 313 313 313 313 312 312 313 313 313 313 313 313 313 313 311 314 315 315 315 313 313 313 314 317 316 314 315 320 320
311 311 311 312 313 313 312 312 312 311 310 310 310 310 310 310 308 307 309 310 309 309 310 309 310 308 306 307 308 311 311 309 309 309 308 309 309 310 311 313 312 313 316
310 309 310 310 310 310 310 309 309 308 308 307 306 306 306 305 299 300 302 306 307 307 307 307 308 306 307 304 303 302 304 305 306 306 306 306 309 309 309 309 310 309 308
309 309 308 309 308 307 307 307 306 306 306 305 305 305 304 305 297 297 299 305 306 306 306 306 306 306 305 307 304 303 302 302 302 304 303 303 303 305 305 304 305 305 305
308 307 307 306 305 305 305 304 305 304 303 303 303 303 303 303 296 295 296 304 305 306 306 305 305 305 305 302 302 303 304 304 304 305 304 303 304 305 305 305 305 305 305
304 303 303 303 303 303 302 302 302 301 300 300 300 300 301 302 296 294 297 304 304 304 305 305 304 304 298 295 300 299 299 300 301 300 299 298 296 296 299 302 300 300 299
301 300 300 299 299 298 299 299 298 298 297 298 298 300 299 301 296 294 297 302 301 300 302 303 300 299 295 294 297 297 296 299 300 301 302 301 300 302 299 302 303 300 300
298 298 297 298 296 297 297 296 296 296 296 297 298 299 300 299 299 295 295 299 297 297 299 300 301 295 294 293 293 298 297 298 297 298 299 300 302 303 304 306 306 303 301
296 296 295 295 295 294 295 295 296 296 296 295 295 295 296 297 296 294 292 292 293 297 297 299 299 293 292 292 294 293 292 293 297 297 296 297 298 301 303 306 305 304 306
294 294 294 294 294 294 295 295 293 293 292 292 292 292 293 295 297 294 292 291 293 294 297 296 293 292 292 295 295 294 294 297 297 296 296 298 300 302 306 306 307 309 308
292 293 293 292 292 294 292 293 292 292 291 291 291 291 291 293 294 295 293 293 293 295 295 297 296 294 294 295 297 298 298 298 296 295 295 297 299 298 299 301 300 301 302
291 291 291 292 292 291 292 292 292 293 291 290 289 290 289 290 290 289 289 290 292 293 294 298 296 297 296 297 298 300 300 301 300 300 299 298 298 298 298 300 300 300 299
290 290 291 291 291 291 291 291 291 290 290 289 289 288 289 289 289 289 289 289 290 290 296 294 293 294 294 295 297 298 298 299 299 298 299 299 300 302 300 301 301 301 300
290 290 291 291 290 290 289 289 288 290 290 289 288 288 288 288 288 288 288 289 289 290 290 290 291 292 293 295 295 295 295 296 298 297 297 297 299 300 300 302 302 302 302
291 289 292 291 291 291 290 290 290 289 288 288 289 288 288 288 288 287 287 289 289 289 289 289 290 291 293 293 293 293 294 295 294 294 294 295 296 297 298 302 304 303 302
291 291 290 290 290 290 290 289 288 287 287 287 287 288 288 287 288 288 288 288 286 286 287 288 289 290 290 291 291 292 291 292 292 293 292 292 293 295 296 300 304 296 298
289 289 289 290 290 290 289 289 288 286 286 286 286 285 287 288 286 286 287 287 286 286 287 287 287 288 289 289 289 289 289 290 290 290 291 290 291 293 294 299 301 306 305
290 289 286 289 289 289 288 287 286 286 285 285 285 285 283 286 285 286 286 286 286 286 286 287 287 287 287 287 287 287 287 287 288 288 289 289 289 291 294 299 302 308 313
289 289 289 289 289 287 287 287 286 285 285 284 285 285 283 285 284 284 285 285 286 287 287 287 286 286 287 286 286 285 285 285 285 286 287 289 289 290 294 297 301 303 315
288 287 288 289 288 286 287 286 286 286 286 285 285 284 284 284 283 284 284 285 285 286 286 287 286 286 287 287 286 285 284 284 284 286 287 288 288 290 292 296 299 301 310
286 286 288 288 287 286 286 286 286 284 285 285 285 285 285 285 285 284 284 284 285 286 286 286 286 286 287 286 286 286 286 285 286 286 286 288 289 291 294 296 297 300 311
286 287 286 286 286 286 286 286 285 285 285 285 285 284 285 285 285 285 285 286 286 286 286 286 286 286 287 286 286 285 284 283 285 284 287 289 291 292 292 292 294 299 309
286 286 285 285 285 285 285 285 284 285 284 285 284 283 284 284 284 285 285 285 285 286 287 287 287 287 288 286 285 283 283 283 284 284 287 290 291 293 290 291 294 298 304
Wind_Speed
15 14 15 14 13 12 11 11 11 11 10 10 9 8 7 6 5 4 4 4 4 5 7 8 9 9 7 8 7 7 6 5 7 11 8 7 8 11 10 9 9 10 9
16 16 15 14 13 13 12 12 11 11 11 11 10 10 9 9 8 8 7 7 7 6 5 6 7 6 7 6 5 7 6 7 4 9 10 9 11 10 10 10 8 10 10
16 16 14 14 13 13 12 11 10 10 10 10 10 9 8 8 7 7 6 6 5 5 5 6 6 6 4 3 4 3 4 4 5 4 5 9 11 9 11 11 11 12 11
15 15 15 13 12 11 10 10 10 10 10 9 9 9 8 7 8 8 8 7 7 6 6 6 6 6 6 6 6 7 7 7 8 8 10 11 11 11 10 11 12 11 11
15 14 12 11 10 10 10 9 9 9 8 8 8 8 8 7 6 10 9 8 9 9 8 8 8 9 11 9 7 8 9 9 9 10 11 12 11 11 12 11 13 12 12
12 11 10 9 9 9 8 8 7 7 7 6 7 8 8 7 10 10 10 9 9 9 9 9 8 10 6 4 7 9 9 10 11 10 11 13 14 12 10 11 12 12 14
11 9 8 7 8 7 6 7 7 7 7 8 8 8 9 9 7 9 9 8 8 7 8 7 8 6 8 9 7 8 11 11 11 12 14 13 12 10 10 11 12 12 13
9 8 8 7 6 6 6 6 7 7 9 9 10 10 10 8 7 10 9 8 7 7 7 8 8 9 8 9 12 11 11 11 11 10 12 12 12 11 10 10 12 14 12
8 8 8 7 7 7 8 9 9 9 10 10 11 11 11 10 8 10 9 6 7 8 7 8 9 10 7 7 12 12 12 11 11 13 17 16 16 16 16 12 11 13 12
7 6 6 6 7 8 9 9 8 9 11 9 10 9 7 8 5 6 8 6 8 8 9 9 5 6 9 10 12 13 14 14 13 14 14 15 15 15 19 17 13 14 13
5 4 5 7 8 8 8 8 8 8 8 8 8 7 6 6 6 8 9 7 7 9 8 8 7 8 11 13 12 13 13 14 17 14 13 12 12 13 12 13 14 13 12
6 7 7 7 6 6 7 6 6 6 6 7 6 6 5 6 7 7 9 9 11 8 9 8 10 13 19 18 14 12 15 14 10 10 10 11 11 11 11 10 11 13 13
7 7 7 6 6 6 6 7 6 6 6 6 5 6 6 6 6 7 10 11 11 9 8 11 17 17 16 13 10 13 13 8 8 9 11 12 11 12 14 13 15 16 16
7 6 5 5 6 5 4 3 4 5 5 5 5 6 6 6 7 9 9 9 10 8 10 9 11 12 13 12 11 8 6 7 8 9 10 11 11 10 10 10 9 9 8
4 4 4 4 4 4 4 4 4 6 5 4 5 5 6 7 8 12 10 9 8 8 11 7 7 7 7 8 8 8 8 8 7 8 9 10 11 10 11 9 9 9 10
2 3 4 3 3 3 3 3 8 8 9 9 8 7 6 6 12 13 14 12 12 13 5 7 7 7 8 9 8 9 10 11 10 10 10 11 11 10 9 9 8 9 9
2 3 1 2 3 4 4 3 3 4 7 8 11 9 12 11 12 15 16 11 10 9 7 6 6 7 8 9 9 9 10 10 12 10 10 11 12 11 11 10 9 8 6
1 2 2 3 4 4 4 4 5 5 5 6 7 10 14 13 13 15 16 7 8 8 7 8 8 8 9 9 9 10 10 10 11 11 11 11 12 12 11 11 10 5 5
2 3 4 4 5 4 5 6 6 6 7 7 7 9 12 13 11 12 13 9 8 7 8 9 9 9 9 9 10 10 11 10 11 11 11 11 11 13 14 12 11 4 5
6 8 5 5 4 5 6 6 7 7 7 8 8 10 9 8 10 10 10 9 8 7 7 9 9 9 10 10 10 10 10 11 11 11 12 11 11 11 13 13 10 9 5
5 6 6 6 6 6 7 8 8 7 7 7 8 11 13 9 9 10 10 9 9 9 9 9 9 10 10 10 10 10 11 10 11 11 12 12 12 13 12 12 11 10 3
6 6 5 6 7 7 7 8 7 7 8 8 8 9 12 9 9 9 10 10 10 10 9 9 9 10 9 10 10 11 11 12 12 12 12 12 12 12 12 12 12 11 4
7 7 6 8 8 6 7 7 7 7 7 7 7 7 9 8 9 9 10 10 10 10 10 9 10 11 10 10 10 10 11 12 13 12 13 13 11 12 12 12 12 12 4
7 7 8 7 6 7 7 7 7 7 7 8 8 8 8 8 8 9 9 9 10 10 10 10 10 14 12 13 12 12 12 13 12 12 18 13 11 12 12 11 11 15 3
7 8 8 8 7 7 7 8 7 7 8 8 8 8 9 9 10 10 10 10 10 10 11 11 11 15 16 19 20 22 21 22 20 19 12 13 14 15 12 10 11 11 7
8 8 8 7 7 7 7 7 7 7 8 8 8 7 8 8 9 9 9 10 10 10 13 11 14 19 18 16 20 21 20 22 20 23 14 12 12 11 10 12 16 10 10
Wind_Direction
104 102 96 93 89 85 80 73 72 71 68 70 66 65 57 44 35 20 8 336 298 287 256 248 264 261 264 267 269 264 253 237 262 297 301 286 263 257 262 262 268 267 261
102 98 95 94 91 85 81 76 73 70 63 60 58 62 62 55 47 43 44 35 35 35 16 3 342 341 298 296 287 291 291 283 258 268 287 274 266 280 282 277 269 265 262
101 95 88 84 80 75 71 66 59 58 54 47 43 41 37 34 32 33 27 19 9 3 355 345 348 345 334 317 294 271 269 275 262 266 273 278 285 286 283 274 271 270 265
90 90 90 87 85 81 72 62 54 46 41 37 35 30 22 20 23 13 5 358 350 344 338 332 326 319 317 315 296 286 271 271 270 269 265 270 277 283 281 280 274 267 269
93 90 88 89 85 80 70 57 49 44 35 25 17 16 9 352 22 351 338 326 324 318 314 312 310 326 313 310 305 306 304 292 288 281 275 272 266 265 267 281 281 286 278
90 89 87 81 74 66 60 52 43 34 20 5 3 355 347 334 15 345 329 308 304 306 312 314 311 298 297 308 304 308 308 292 281 281 282 277 280 279 282 277 283 286 281
93 89 84 79 69 54 41 31 18 4 352 346 339 338 333 324 14 330 325 298 304 306 304 312 316 328 310 309 304 255 261 253 263 282 279 279 286 281 280 275 266 265 269
80 74 62 52 47 31 16 7 346 339 337 332 328 328 322 322 354 326 312 293 301 309 316 321 319 318 331 336 317 302 295 288 277 271 275 279 276 274 265 267 275 280 274
81 62 46 29 9 353 342 338 334 328 322 318 316 318 317 319 6 333 318 320 319 319 324 323 329 316 9 333 322 312 305 292 287 259 247 260 262 263 262 276 265 261 265
68 56 26 6 341 324 320 318 319 310 305 312 313 317 326 320 18 355 345 326 326 333 323 320 305 320 336 319 316 310 300 296 298 293 289 279 260 253 235 247 260 260 263
54 16 353 348 321 315 317 318 319 314 317 321 329 339 345 360 8 8 13 345 344 320 314 320 324 3 312 304 300 297 292 305 294 287 286 283 280 273 262 246 244 250 260
13 350 349 327 323 330 328 327 330 333 338 345 347 354 0 354 358 19 1 351 339 323 321 325 323 326 306 302 301 303 292 289 282 282 280 280 281 284 280 268 258 251 248
348 343 329 338 358 352 343 350 347 351 357 354 355 351 345 342 342 4 331 344 334 325 317 310 301 295 293 297 291 293 289 289 289 286 284 284 281 283 285 269 257 252 252
337 325 355 5 354 357 351 335 353 3 354 350 359 356 345 339 343 352 340 331 323 317 321 308 304 292 280 277 296 305 299 284 275 276 278 278 280 274 267 269 267 267 257
337 348 6 0 353 348 7 3 11 32 32 25 7 347 344 342 347 327 325 325 326 322 316 325 334 336 330 334 333 338 328 320 322 319 300 288 281 273 265 261 252 255 247
353 8 10 344 354 8 19 53 62 81 70 55 33 21 345 342 336 340 339 341 347 335 338 356 346 343 343 337 335 345 339 340 339 329 326 323 318 309 270 268 251 246 250
355 7 54 48 49 49 45 48 59 98 101 62 24 14 12 1 359 357 354 348 8 1 15 356 348 346 341 342 344 342 332 334 330 330 327 330 328 326 316 287 252 238 232
151 91 72 65 69 62 55 53 50 42 36 26 45 21 11 6 6 3 358 4 18 18 8 356 350 345 341 342 343 334 334 330 334 328 326 328 325 326 318 325 322 212 203
152 103 92 79 69 71 74 65 58 56 44 35 20 22 15 9 5 17 18 31 15 7 0 356 349 345 345 341 337 336 332 332 328 328 325 324 325 325 323 332 332 192 218
100 89 89 91 90 83 72 69 62 55 47 41 33 20 6 13 24 20 21 24 16 6 356 355 352 349 351 342 336 332 332 334 332 329 326 322 320 319 318 327 327 307 208
111 102 92 96 84 71 73 67 62 58 51 45 40 25 4 24 23 19 18 16 9 6 0 354 354 351 349 344 340 336 335 329 330 325 323 320 319 321 322 325 331 325 234
118 108 99 98 87 81 76 71 66 60 50 42 33 29 16 30 26 19 15 10 5 4 359 352 353 350 347 345 342 339 335 333 329 325 318 318 317 316 321 325 335 328 30
106 106 108 97 96 102 82 71 62 57 55 46 36 26 22 21 17 11 11 7 5 3 359 356 357 352 352 350 349 342 335 332 326 321 320 317 315 318 322 323 332 330 33
104 105 98 91 86 85 79 72 72 64 44 48 40 33 27 18 15 12 10 0 2 1 3 360 357 355 353 357 354 350 344 337 330 330 327 315 315 317 321 328 331 330 359
108 99 93 90 86 83 85 71 64 58 55 47 42 32 23 18 16 16 7 358 2 359 1 2 358 355 358 355 356 352 345 341 342 337 327 326 330 331 333 327 329 331 325
97 92 86 82 78 76 72 66 61 52 46 44 44 32 22 17 13 14 6 5 0 357 357 360 356 358 355 357 351 344 345 345 345 339 331 343 345 343 339 331 338 336 341